Regional Weather Roundup
Issued by NWS

Home | Current Version | Previous Version | Text Only | Print | Product List | Glossary On
Versions: 1 2 3 4 5 6 7 8 9 10 11 12 13 14 15 16 17 18 19 20 21 22 23 24 25 26 27 28 29 30 31 32 33 34 35 36 37 38 39 40 41 42 43 44 45 46 47 48 49 50
000
ASUS43 KOAX 091710
RWRNE

WEATHER ROUNDUP FOR NEBRASKA
NATIONAL WEATHER SERVICE OMAHA NE
1100 AM CST FRI DEC 09 2016

NOTES: SATELLITE DATA IS BEING USED TO AUGMENT CLOUD COVER ABOVE
       12000 FEET.
       "FAIR" INDICATES FEW OR NO CLOUDS BELOW 12,000 FEET WITH NO
       SIGNIFICANT WEATHER AND/OR OBSTRUCTIONS TO VISIBILITY.

  * THESE STATIONS DO NOT REPORT WEATHER SUCH AS RAIN...SNOW OR FOG.

NEZ001>004-019>022-054>056-091800-
NEBRASKA PANHANDLE

CITY           SKY/WX    TMP DP  RH WIND       PRES   REMARKS
SCOTTSBLUFF    SUNNY     21   9  59 N3        30.18R
ALLIANCE       SUNNY     18   8  65 S3        30.17S
CHADRON        CLOUDY     5  -2  72 N7        30.32R WCI  -7
KIMBALL        SUNNY     22  14  71 W9        30.12R WCI  12
SIDNEY         SUNNY     17   8  67 SW8       30.15S WCI   7
$$

NEZ057>060-069>072-079>082-091800-
SOUTHWEST NEBRASKA

CITY           SKY/WX    TMP DP  RH WIND       PRES   REMARKS
NORTH PLATTE   CLOUDY    19   7  59 S16       30.33F WCI   4
IMPERIAL       CLOUDY    18  10  71 S13       30.27R WCI   5
LEXINGTON      CLOUDY    19  10  66 SE14G21   30.38F WCI   6
MCCOOK         CLOUDY    21  11  65 S12       30.35F WCI   9
OGALLALA       PTSUNNY   21  12  69 S10G16    30.25F WCI   9
$$

NEZ005>010-023>029-035>040-094-091800-
NORTH CENTRAL NEBRASKA

CITY           SKY/WX    TMP DP  RH WIND       PRES   REMARKS
VALENTINE      CLOUDY    12   6  77 SE9       30.36F WCI   0
AINSWORTH      FLURRIES  14   7  73 SE10      30.37F WCI   2
BROKEN BOW     CLOUDY    14   9  80 SE13G22   30.38F WCI   0
O`NEILL        CLOUDY    13   7  79 SE8       30.48S WCI   1
THEDFORD       CLOUDY    19   6  58 SE17      30.31F WCI   4
$$

NEZ041-046>049-061>064-073>077-083>087-091800-
SOUTH CENTRAL NEBRASKA

CITY           SKY/WX    TMP DP  RH WIND       PRES   REMARKS
GRAND ISLAND   CLOUDY    16   9  74 SE15      30.48F WCI   1
AURORA         CLOUDY    16   9  74 SE14      30.51S WCI   1
HASTINGS       CLOUDY    18  10  71 S12       30.50S WCI   5
HEBRON         CLOUDY    20  13  76 SE9       30.56F WCI   9
HOLDREGE       CLOUDY    18  10  68 SE14G20   30.43F WCI   5
KEARNEY *      CLOUDY    19   9  63 S15       30.45F WCI   5
YORK           CLOUDY    16   9  73 SE9       30.54F WCI   4
$$

NEZ011>018-030>034-042>045-091800-
NORTHEAST NEBRASKA

CITY           SKY/WX    TMP DP  RH WIND       PRES   REMARKS
NORFOLK        CLOUDY    10   4  76 SE5       30.54F WCI   2
ALBION         CLOUDY    12   6  77 SE9       30.51F WCI  -1
BLAIR          CLOUDY    14   9  79 CALM      30.59F
FREMONT        CLOUDY    13   8  80 CALM      30.60F
TEKAMAH        CLOUDY    11   5  77 CALM      30.62F
WAYNE          CLOUDY    10   5  80 SE3       30.56F
$$

NEZ050>053-065>068-078-088>093-091800-
SOUTHEAST NEBRASKA

CITY           SKY/WX    TMP DP  RH WIND       PRES   REMARKS
LINCOLN        CLOUDY    16   9  74 E3        30.61F
OMAHA EPPLEY   CLOUDY    15   7  70 S3        30.63F
BEATRICE       CLOUDY    19  11  73 S6        30.59S WCI  11
FALLS CITY     CLOUDY    17  11  77 S3        30.64F
NEBRASKA CITY  CLOUDY    16   8  69 S3        30.62F
PLATTSMOUTH    CLOUDY    16   8  70 SE5       30.61F WCI   9
$$

NEZ044-045-051>053-067-091800-
OMAHA AREA

CITY           SKY/WX    TMP DP  RH WIND       PRES   REMARKS
OMAHA EPPLEY   CLOUDY    15   7  70 S3        30.63F
BLAIR          CLOUDY    14   9  79 CALM      30.59F
FREMONT        CLOUDY    13   8  80 CALM      30.60F
MILLARD        CLOUDY    17   9  71 CALM      30.63F
OFFUTT AFB     CLOUDY    15  10  78 SE1       30.63F
PLATTSMOUTH    CLOUDY    16   8  70 SE5       30.61F WCI   9
WAHOO          CLOUDY    13   8  79 SE5       30.61F WCI   5
$$



USA.gov is the U.S. government's official web portal to all federal, state and local government web resources and services.